Weather observations for the past three days for
Presque Isle
Imperial (Metric)
Date Time (edt) Wind (mph) Vis. (mi.) Weather Sky Cond. Temperature (ºF) Relative Humidity Wind Chill (°F) Heat Index (°F) Pressure Precipitation (in)
Air Dwpt 6 hour altimeter (in) sea level (mb) 1 hr 3 hr 6 hr
Max. Min.
22 04:56 Calm 10.00 Fair CLR 48.9 48 97% 30.1 1021.8
22 03:56 Calm 10.00 Fair CLR 51.1 48.9 92% 30.11 1022.2
22 02:56 Calm 5.00 Fog/Mist CLR 51.1 50 96% 30.11 1022.2
22 01:56 Calm 5.00 Fog/Mist CLR 53.1 52 66 53.1 96% 30.12 1022.6
22 00:56 Calm 10.00 Fair CLR 55.9 53.1 90% 30.13 1023.0
21 23:56 SW 5 10.00 Fair CLR 55 54 96% 30.12 1022.6
21 22:56 Calm 10.00 Fair CLR 57 55.9 96% 30.14 1023.1
21 21:56 Calm 10.00 Fair CLR 57.9 55 90% 30.14 1023.0
21 20:56 SW 3 10.00 Fair CLR 60.1 57 90% 30.14 1023.0
21 19:56 Calm 10.00 Fair CLR 66 57 71.1 66 73% 30.13 1022.7
21 18:56 S 3 10.00 Fair CLR 66.9 57 71% 30.14 1022.8
21 17:56 W 5 10.00 Fair CLR 70 52 53% 30.14 1023.1
21 16:56 W 7 10.00 Fair CLR 71.1 50 47% 30.15 1023.3
21 15:56 NW 10 10.00 Fair CLR 70 46.9 44% 30.17 1023.9
21 14:56 W 13 10.00 Fair CLR 70 48 46% 30.2 1024.9
21 13:56 W 8 10.00 Fair CLR 68 45 68 64.9 44% 30.21 1025.4
21 12:56 W 7 10.00 Fair CLR 66 46.9 50% 30.23 1025.8
21 11:56 NW 8 10.00 Fair CLR 66 48 52% 30.24 1026.1
21 10:56 NW 9 10.00 Fair CLR 66 46 49% 30.24 1026.4
21 09:56 NW 7 10.00 Fair CLR 66.9 48 51% 30.25 1026.7
21 08:56 NW 8 10.00 Fair CLR 66.9 50 55% 30.26 1026.8
21 07:56 NW 7 10.00 Fair CLR 64.9 52 66.9 57 63% 30.25 1026.6
21 06:56 Calm 10.00 Fair CLR 62.1 54 75% 30.24 1026.2
21 05:56 Calm 9.00 Fair CLR 57 54 90% 30.22 1025.7
21 04:56 W 3 10.00 Fair CLR 59 51.1 75% 30.21 1025.2
21 03:56 N 9 10.00 Fair CLR 61 53.1 75% 30.19 1024.5
21 02:56 N 9 10.00 Fair CLR 63 53.1 70% 30.18 1024.2
21 01:56 NW 8 10.00 Fair CLR 66.9 54 75.9 63 63% 30.18 1023.9
21 00:56 N 8 10.00 Fair CLR 68 55 63% 30.17 1023.6
20 23:56 N 9 10.00 Fair CLR 66.9 55.9 68% 30.17 1023.5
20 22:56 Calm 10.00 Fair CLR 64 57.9 81% 30.17 1023.8
20 21:56 Calm 10.00 Fair CLR 68 57.9 70% 30.17 1023.7
20 20:56 N 8 10.00 Fair CLR 70 57 64% 30.16 1023.3
20 19:56 NW 10 10.00 Fair CLR 75.9 53.1 89.1 75.9 45% 78 30.14 1022.4
20 18:56 N 15 10.00 Fair CLR 79 59 50% 80 30.11 1021.6
20 17:56 N 22 10.00 Fair and Breezy CLR 82.9 62.1 49% 84 30.08 1020.6
20 16:56 N 16 10.00 Fair CLR 87.1 64 46% 88 30.07 1020.1
20 15:56 NW 10 10.00 A Few Clouds FEW065 88 64.9 46% 90 30.07 1020.3
20 14:56 NW 12 10.00 A Few Clouds FEW055 89.1 66 47% 92 30.08 1020.5
20 13:56 NW 9 10.00 A Few Clouds FEW050 87.1 68 88 80.1 53% 91 30.09 1020.9
20 12:56 W 17 G 24 10.00 Mostly Cloudy SCT055 BKN070 87.1 66 50% 89 30.1 1021.1
20 11:56 W 13 G 16 10.00 Mostly Cloudy SCT044 BKN055 86 69.1 57% 90 30.1 1021.1
20 10:56 NW 12 10.00 Fair CLR 84 69.1 61% 88 30.1 1021.1
20 09:56 W 10 10.00 Fair CLR 81 69.1 67% 84 30.1 1021.1
20 08:56 W 14 10.00 Fair CLR 81 70 69% 84 30.09 1020.8
20 07:56 W 8 10.00 Fair CLR 81 72 82 78.1 74% 85 30.08 1020.5
20 06:56 W 7 10.00 Fair CLR 80.1 72 76% 84 30.08 1020.4
20 05:56 SW 7 10.00 Fair CLR 78.1 72 82% 80 30.05 1019.5
20 04:56 SW 9 10.00 Fair CLR 79 71.1 77% 82 30.05 1019.5
20 03:56 SW 9 10.00 Fair CLR 79 72 79% 82 30.04 1019.1
20 02:56 W 7 10.00 Fair CLR 80.1 72 76% 84 30.05 1019.2
20 01:56 SW 6 10.00 Fair CLR 81 72 89.1 80.1 74% 85 30.05 1019.5
20 00:56 W 5 10.00 Fair CLR 81 71.1 72% 85 30.06 1019.7
19 23:56 W 8 10.00 Fair CLR 82 71.1 69% 86 30.07 1020.0
19 22:56 SW 9 10.00 Fair CLR 84 70 63% 88 30.06 1019.9
19 21:56 SW 9 10.00 Fair CLR 84.9 70 61% 89 30.08 1020.4
19 20:56 SW 9 10.00 Fair CLR 87.1 71.1 59% 93 30.07 1020.1
19 19:56 SW 7 10.00 Fair CLR 89.1 71.1 95 89.1 55% 95 30.06 1019.8
19 18:56 SW 9 10.00 Fair CLR 91 69.1 49% 96 30.06 1019.7
19 17:56 SW 14 G 18 10.00 A Few Clouds FEW075 93 70 47% 99 30.06 1019.8
19 16:56 SW 15 10.00 A Few Clouds FEW065 95 71.1 46% 102 30.06 1019.9
19 15:56 SW 15 10.00 A Few Clouds FEW060 93.9 71.1 48% 101 30.09 1020.7
19 14:56 SW 8 G 20 10.00 Fair CLR 93.9 72 49% 102 30.11 1021.5
19 13:56 S 8 10.00 Partly Cloudy SCT060 SCT080 93 72 93.9 80.1 50% 101 30.12 1021.9
19 12:56 SW 9 10.00 Partly Cloudy SCT055 93 73 52% 102 30.14 1022.4
19 11:56 W 8 10.00 A Few Clouds FEW043 91 72 54% 99 30.15 1022.7
19 10:56 W 9 10.00 Fair CLR 89.1 73.9 61% 98 30.16 1023.4
19 09:56 W 8 10.00 Fair CLR 87.1 73.9 65% 95 30.17 1023.6
19 08:56 SW 7 10.00 Fair CLR 82.9 73 72% 89 30.18 1024.0
19 07:56 SW 8 10.00 Fair CLR 80.1 72 80.1 69.1 76% 84 30.19 1024.5
19 06:56 SW 3 10.00 Fair CLR 75.9 71.1 85% 76 30.19 1024.6
19 05:56 SW 3 10.00 Fair CLR 71.1 70 96% 30.18 1024.2
Date Time (edt) Wind (mph) Vis. (mi.) Weather Sky Cond. Air Dwpt Max. Min. Relative Humidity Wind Chill (°F) Heat Index (°F) altimeter (in) sea level (mb) 1 hr 3 hr 6 hr
6 hour
Temperature (ºF) Pressure Precipitation (in)